CW4957 Weather Reports


Display with metric or nautical units.
time (UTC)temp
F
wind
direction
speed
MPH
gust
MPH
rain 1hr
in
rain 24hr
in
rain mn
in
humidity
%
barometer
mb
20260510043806 50 90 0.0 0.0 0.00 0.37 0.00 96 1010.1
20260510043313 50 91 0.0 0.0 0.00 0.37 0.00 96 1010.1
20260510042812 50 90 0.0 0.0 0.00 0.37 0.00 96 1010.1
20260510042326 50 90 0.0 0.0 0.00 0.37 0.00 96 1010.0
20260510041824 50 90 0.0 0.0 0.00 0.37 0.00 96 1010.0
20260510041322 50 90 0.0 0.0 0.00 0.37 0.00 96 1010.0
20260510040802 50 90 0.0 0.0 0.00 0.37 0.00 96 1010.2
20260510040315 50 91 0.0 1.0 0.00 0.37 0.00 96 1010.2
20260510035815 50 91 0.0 0.0 0.00 0.37 0.37 96 1010.2
20260510035312 50 90 0.0 0.0 0.00 0.37 0.37 96 1010.2
20260510034809 50 91 0.0 1.0 0.00 0.37 0.37 96 1010.2
20260510034307 50 91 0.0 1.0 0.00 0.37 0.37 96 1010.2
20260510033812 50 90 0.0 1.0 0.00 0.37 0.37 96 1010.0
20260510033314 50 89 0.0 0.0 0.00 0.37 0.37 96 1010.0
20260510032811 50 91 0.0 0.0 0.00 0.37 0.37 96 1010.0
20260510032312 50 90 0.0 0.0 0.00 0.37 0.37 96 1010.0
20260510031809 50 90 0.0 0.0 0.00 0.37 0.37 96 1010.0
20260510031305 50 90 0.0 0.0 0.00 0.37 0.37 96 1010.0
20260510030804 50 88 0.0 0.0 0.00 0.37 0.37 96 1010.3
20260510030330 50 90 0.0 0.0 0.00 0.37 0.37 96 1010.3
20260510025808 50 90 0.0 0.0 0.00 0.37 0.37 96 1010.3
20260510025313 50 90 0.0 0.0 0.00 0.37 0.37 96 1010.0
20260510024810 50 90 0.0 0.0 0.00 0.37 0.37 96 1010.0
20260510024309 50 90 0.0 0.0 0.00 0.37 0.37 96 1010.0
20260510023801 50 91 0.0 0.0 0.00 0.37 0.37 96 1010.0
20260510023303 50 89 0.0 0.0 0.00 0.37 0.37 96 1010.0
20260510022802 50 90 0.0 0.0 0.00 0.37 0.37 96 1010.0
20260510022306 50 90 0.0 0.0 0.00 0.37 0.37 96 1010.4
20260510021759 50 90 0.0 0.0 0.00 0.37 0.37 96 1010.4
20260510021256 50 89 0.0 0.0 0.00 0.37 0.37 96 1010.4
20260510020828 50 90 0.0 0.0 0.00 0.37 0.37 96 1010.5
20260510020300 50 91 0.0 0.0 0.00 0.37 0.37 96 1010.5
20260510015759 50 90 0.0 0.0 0.00 0.37 0.37 96 1010.5
20260510015318 50 89 0.0 0.0 0.00 0.37 0.37 96 1010.9
20260510014800 49 88 0.0 0.0 0.00 0.37 0.37 96 1010.9
20260510014258 49 89 0.0 0.0 0.00 0.37 0.37 95 1010.9
20260510013757 49 89 0.0 0.0 0.00 0.37 0.37 95 1010.5
20260510013314 49 90 0.0 0.0 0.00 0.37 0.37 95 1010.5
20260510012812 49 88 0.0 0.0 0.00 0.37 0.37 95 1010.5
20260510012259 49 88 0.0 0.0 0.00 0.37 0.37 95 1010.5
20260510011814 49 90 0.0 0.0 0.00 0.37 0.37 95 1010.5
20260510011311 49 88 0.0 0.0 0.00 0.37 0.37 95 1010.5
20260510010810 49 90 0.0 0.0 0.00 0.37 0.37 95 1010.2
20260510010306 49 88 0.0 0.0 0.00 0.37 0.37 95 1010.2
20260510005821 49 88 0.0 0.0 0.00 0.37 0.37 95 1010.2
20260510005313 49 88 0.0 0.0 0.00 0.37 0.37 95 1010.0
20260510004811 49 88 0.0 0.0 0.00 0.37 0.37 95 1010.0
20260510004318 49 88 0.0 0.0 0.00 0.37 0.37 95 1010.0
20260510003800 49 88 0.0 0.0 0.00 0.37 0.37 95 1009.9
20260510003300 49 88 0.0 0.0 0.00 0.37 0.37 95 1009.9
20260510002813 49 88 0.0 1.0 0.00 0.37 0.37 95 1009.9
20260510002311 49 88 0.0 2.0 0.00 0.37 0.37 95 1009.5
20260510001832 49 88 0.0 3.0 0.00 0.37 0.37 95 1009.5
20260510001312 49 88 0.0 6.0 0.00 0.37 0.37 95 1009.5
20260510000755 49 96 2.0 6.0 0.00 0.37 0.37 95 1009.8
20260510000313 49 139 2.0 4.0 0.00 0.37 0.37 95 1009.8
20260509235805 49 139 0.0 0.0 0.00 0.37 0.37 95 1009.8
20260509235258 49 139 0.0 0.0 0.00 0.37 0.37 95 1010.0
20260509234756 49 139 0.0 0.0 0.00 0.37 0.37 95 1010.0
20260509234304 49 138 0.0 0.0 0.00 0.37 0.37 95 1010.0
20260509233759 49 138 0.0 0.0 0.00 0.37 0.37 95 1009.9
20260509233312 49 138 0.0 0.0 0.00 0.37 0.37 95 1009.9
20260509232811 49 139 0.0 0.0 0.00 0.37 0.37 95 1009.9
20260509232329 49 139 0.0 0.0 0.00 0.37 0.37 95 1009.8
20260509231804 49 140 0.0 0.0 0.00 0.37 0.37 95 1009.8
20260509231322 49 139 0.0 0.0 0.00 0.37 0.37 95 1009.8
20260509230801 49 139 0.0 0.0 0.00 0.37 0.37 95 1009.9
20260509230300 49 139 0.0 0.0 0.00 0.37 0.37 95 1009.9
20260509225801 49 139 0.0 0.0 0.00 0.37 0.37 95 1009.9
20260509225305 49 140 0.0 0.0 0.00 0.37 0.37 95 1009.8
20260509224759 49 140 0.0 0.0 0.00 0.37 0.37 95 1009.8
20260509224313 49 139 0.0 0.0 0.00 0.37 0.37 95 1009.8
20260509223832 49 140 0.0 0.0 0.00 0.37 0.37 95 1009.8
20260509223307 49 140 0.0 0.0 0.00 0.37 0.37 95 1009.8
20260509222820 49 139 0.0 0.0 0.00 0.37 0.37 95 1009.8
20260509222307 49 140 0.0 0.0 0.00 0.37 0.37 95 1009.7
20260509221801 49 139 0.0 0.0 0.00 0.37 0.37 95 1009.7
20260509221258 49 139 0.0 0.0 0.00 0.37 0.37 95 1009.7
20260509220807 49 140 0.0 0.0 0.00 0.37 0.37 95 1009.6
20260509220300 49 140 0.0 0.0 0.01 0.37 0.37 95 1009.6
20260509215800 49 139 0.0 0.0 0.01 0.37 0.37 95 1009.6
20260509215258 49 140 0.0 0.0 0.01 0.37 0.37 95 1009.9
20260509214759 49 140 0.0 0.0 0.01 0.37 0.37 95 1009.9
20260509214304 49 140 0.0 0.0 0.01 0.37 0.37 95 1009.9
20260509213757 49 140 0.0 0.0 0.02 0.37 0.37 95 1009.9
20260509213259 49 139 0.0 0.0 0.02 0.37 0.37 95 1009.9
20260509212757 49 138 0.0 0.0 0.02 0.37 0.37 95 1009.9
20260509212318 49 138 0.0 0.0 0.02 0.37 0.37 95 1010.2
20260509211815 49 138 0.0 0.0 0.02 0.37 0.37 95 1010.2
20260509211311 49 138 0.0 0.0 0.03 0.37 0.37 95 1010.2
20260509210808 49 138 0.0 0.0 0.03 0.37 0.37 95 1010.5
20260509210258 49 138 0.0 0.0 0.02 0.36 0.36 95 1010.5
20260509205808 49 138 0.0 0.0 0.02 0.36 0.36 95 1010.5
20260509205307 49 138 0.0 0.0 0.03 0.36 0.36 95 1010.6
20260509204822 49 138 0.0 0.0 0.03 0.36 0.36 95 1010.6
20260509204317 48 138 0.0 0.0 0.02 0.35 0.35 95 1010.6
20260509203813 48 138 0.0 0.0 0.02 0.35 0.35 95 1010.8
20260509203312 48 138 0.0 0.0 0.03 0.35 0.35 95 1010.8
20260509202809 48 138 0.0 0.0 0.03 0.35 0.35 95 1010.8
20260509202307 48 138 0.0 0.0 0.04 0.35 0.35 95 1011.0
20260509201803 48 138 0.0 0.0 0.04 0.35 0.35 95 1011.0
20260509201259 48 138 0.0 0.0 0.04 0.34 0.34 95 1011.0
20260509200758 48 138 0.0 0.0 0.05 0.34 0.34 95 1011.0
20260509200308 48 138 0.0 0.0 0.05 0.34 0.34 95 1011.0
20260509195811 48 138 0.0 0.0 0.06 0.34 0.34 95 1011.0
20260509195309 48 138 0.0 0.0 0.05 0.33 0.33 95 1010.8
20260509194811 48 138 0.0 0.0 0.06 0.33 0.33 95 1010.8
20260509194309 48 138 0.0 0.0 0.06 0.33 0.33 95 1010.8
20260509193811 48 138 0.0 0.0 0.05 0.32 0.32 95 1011.0
20260509193310 48 138 0.0 0.0 0.06 0.32 0.32 95 1011.0
20260509192809 48 138 0.0 0.0 0.06 0.32 0.32 95 1011.0
20260509192306 48 138 0.0 0.0 0.05 0.31 0.31 95 1011.1
20260509191801 48 138 0.0 0.0 0.04 0.30 0.30 95 1011.1
20260509191313 48 138 0.0 0.0 0.04 0.30 0.30 95 1011.1
20260509190815 48 138 0.0 0.0 0.04 0.29 0.29 95 1011.1
20260509190311 48 138 0.0 0.0 0.04 0.29 0.29 95 1011.1
20260509185830 48 138 0.0 0.0 0.04 0.28 0.28 95 1011.1
20260509185326 48 138 0.0 0.0 0.04 0.28 0.28 95 1011.3
20260509184802 48 138 0.0 0.0 0.03 0.27 0.27 95 1011.3
20260509184257 48 138 0.0 0.0 0.04 0.27 0.27 95 1011.3
20260509183757 48 138 0.0 0.0 0.04 0.27 0.27 95 1011.3
20260509183256 48 138 0.0 0.0 0.04 0.26 0.26 95 1011.3
20260509182756 48 138 0.0 0.0 0.04 0.26 0.26 95 1011.3
20260509182311 47 138 0.0 0.0 0.05 0.26 0.26 95 1011.5
20260509181805 47 138 0.0 0.0 0.05 0.26 0.26 95 1011.5
20260509181307 47 138 0.0 0.0 0.06 0.26 0.26 95 1011.5
20260509180822 47 138 0.0 0.0 0.05 0.25 0.25 95 1011.6
20260509180314 47 138 0.0 0.0 0.04 0.24 0.24 95 1011.6
20260509175811 47 138 0.0 0.0 0.05 0.24 0.24 95 1011.6
20260509175254 47 138 0.0 0.0 0.05 0.24 0.24 95 1011.7
20260509174814 47 138 0.0 0.0 0.05 0.23 0.23 94 1011.7
20260509174329 47 138 0.0 0.0 0.05 0.23 0.23 95 1011.7
20260509173802 47 138 0.0 0.0 0.05 0.23 0.23 95 1012.0
20260509173258 47 138 0.0 0.0 0.05 0.22 0.22 95 1012.0
20260509172801 46 138 0.0 0.0 0.05 0.22 0.22 95 1012.0
20260509172306 46 138 0.0 0.0 0.05 0.21 0.21 95 1012.2
20260509171807 46 138 0.0 0.0 0.05 0.21 0.21 95 1012.2
20260509171305 46 138 0.0 0.0 0.05 0.20 0.20 95 1012.2
20260509170824 46 138 0.0 0.0 0.05 0.20 0.20 95 1012.3
20260509170258 46 138 0.0 0.0 0.05 0.19 0.19 95 1012.3
20260509165811 46 138 0.0 0.0 0.06 0.19 0.19 95 1012.3
20260509165318 46 138 0.0 0.0 0.06 0.19 0.19 95 1012.5
20260509164801 46 138 0.0 0.0 0.06 0.18 0.18 95 1012.5
20260509164335 46 138 0.0 0.0 0.06 0.18 0.18 95 1012.5
20260509163809 46 138 0.0 0.0 0.05 0.17 0.17 95 1012.6
20260509163307 46 138 0.0 0.0 0.05 0.17 0.17 95 1012.6
20260509162824 46 138 0.0 0.0 0.05 0.16 0.16 95 1012.6
20260509162259 46 138 0.0 0.0 0.05 0.16 0.16 95 1012.6
20260509161806 46 138 0.0 0.0 0.04 0.15 0.15 95 1012.6
20260509161325 46 138 0.0 0.0 0.04 0.15 0.15 95 1012.6
20260509160802 46 138 0.0 0.0 0.04 0.14 0.14 95 1012.5
20260509160259 46 138 0.0 0.0 0.04 0.14 0.14 95 1012.5
20260509155814 45 138 0.0 0.0 0.03 0.13 0.13 95 1012.5
20260509155316 45 138 0.0 0.0 0.03 0.13 0.13 95 1012.6
20260509154819 45 138 0.0 0.0 0.03 0.12 0.12 95 1012.6
20260509154307 45 138 0.0 0.0 0.03 0.12 0.12 95 1012.6
20260509153804 45 138 0.0 0.0 0.03 0.12 0.12 95 1012.8
20260509153322 45 138 0.0 0.0 0.03 0.12 0.12 95 1012.8
20260509152759 44 138 0.0 0.0 0.02 0.11 0.11 94 1012.8
20260509152305 44 138 0.0 0.0 0.03 0.11 0.11 94 1012.9
20260509151819 44 138 0.0 0.0 0.03 0.11 0.11 94 1012.9
20260509151258 44 138 0.0 1.0 0.03 0.11 0.11 94 1012.9
20260509150810 44 138 0.0 2.0 0.02 0.10 0.10 94 1013.1
20260509150307 43 138 1.0 2.0 0.02 0.10 0.10 94 1013.1
20260509145809 43 138 0.0 0.0 0.02 0.10 0.10 94 1013.1
20260509145306 43 138 0.0 0.0 0.02 0.10 0.10 94 1013.2
20260509144802 43 138 0.0 0.0 0.01 0.09 0.09 94 1013.2
20260509144301 43 138 0.0 0.0 0.01 0.09 0.09 94 1013.2
20260509143757 43 138 0.0 0.0 0.01 0.09 0.09 93 1013.2
20260509143315 43 138 0.0 0.0 0.01 0.09 0.09 93 1013.2
20260509142800 43 138 0.0 0.0 0.01 0.09 0.09 93 1013.2
20260509142314 43 138 0.0 0.0 0.01 0.08 0.08 93 1013.1
20260509141756 42 138 0.0 0.0 0.01 0.08 0.08 93 1013.1
20260509141330 42 138 0.0 1.0 0.01 0.08 0.08 93 1013.1
20260509140807 42 138 0.0 1.0 0.01 0.08 0.08 93 1013.1
20260509140258 42 138 0.0 0.0 0.01 0.08 0.08 93 1013.1
20260509135754 42 138 0.0 0.0 0.01 0.08 0.08 93 1013.1
20260509135256 42 138 0.0 0.0 0.01 0.08 0.08 93 1013.2
20260509134814 42 138 0.0 0.0 0.01 0.08 0.08 93 1013.2
20260509134337 42 138 0.0 0.0 0.01 0.08 0.08 93 1013.2
20260509133815 42 138 0.0 0.0 0.01 0.08 0.08 93 1013.5
20260509133329 42 138 0.0 0.0 0.01 0.08 0.08 93 1013.5
20260509132810 42 138 0.0 0.0 0.01 0.08 0.08 93 1013.5
20260509132307 41 138 0.0 0.0 0.00 0.07 0.07 93 1013.4
20260509131811 41 138 0.0 0.0 0.00 0.07 0.07 93 1013.4
20260509131309 41 138 0.0 0.0 0.00 0.07 0.07 93 1013.4
20260509130805 41 138 0.0 0.0 0.00 0.07 0.07 92 1013.2
20260509130259 41 138 0.0 0.0 0.00 0.07 0.07 92 1013.2
20260509125756 41 153 0.0 1.0 0.00 0.07 0.07 92 1013.2
20260509125314 41 153 0.0 1.0 0.00 0.07 0.07 92 1013.1
20260509124813 41 71 0.0 1.0 0.00 0.07 0.07 92 1013.1
20260509124333 40 71 0.0 1.0 0.00 0.07 0.07 92 1013.1
20260509123808 40 71 0.0 0.0 0.00 0.07 0.07 92 1013.2
20260509123306 40 71 0.0 0.0 0.01 0.07 0.07 92 1013.2
20260509122816 40 71 0.0 0.0 0.01 0.07 0.07 91 1013.2
20260509122300 40 71 0.0 0.0 0.01 0.07 0.07 91 1013.2
20260509121758 40 71 0.0 0.0 0.01 0.07 0.07 91 1013.2
20260509121253 40 71 0.0 0.0 0.01 0.07 0.07 91 1013.2
20260509120833 40 71 0.0 0.0 0.02 0.07 0.07 91 1013.6
20260509120305 40 71 0.0 0.0 0.03 0.07 0.07 91 1013.6
20260509115758 40 71 0.0 0.0 0.04 0.07 0.07 91 1013.6
20260509115258 40 71 0.0 0.0 0.04 0.07 0.07 90 1013.6
20260509114814 40 71 0.0 0.0 0.05 0.07 0.07 90 1013.6
20260509114256 40 71 0.0 0.0 0.05 0.07 0.07 90 1013.6
20260509113815 40 71 0.0 0.0 0.06 0.07 0.07 90 1013.7
20260509113335 40 71 0.0 0.0 0.05 0.06 0.06 90 1013.7
20260509112811 40 71 0.0 0.0 0.05 0.06 0.06 90 1013.7
20260509112315 40 71 0.0 1.0 0.05 0.06 0.06 90 1013.6
20260509111814 40 71 0.0 0.0 0.06 0.06 0.06 90 1013.6
20260509111314 40 71 0.0 0.0 0.06 0.06 0.06 90 1013.6
20260509110804 40 71 0.0 0.0 0.05 0.05 0.05 89 1014.0
20260509110257 40 71 0.0 1.0 0.04 0.04 0.04 89 1014.0
20260509105814 40 71 0.0 1.0 0.03 0.03 0.03 89 1014.0
20260509105310 40 71 0.0 1.0 0.03 0.03 0.03 89 1013.9
20260509104825 39 71 0.0 0.0 0.02 0.02 0.02 89 1013.9
20260509104303 39 71 0.0 2.0 0.02 0.02 0.02 88 1013.9
20260509103821 40 71 0.0 2.0 0.01 0.01 0.01 88 1013.8
20260509103320 40 71 0.0 1.0 0.01 0.01 0.01 89 1013.8
20260509102758 39 71 0.0 0.0 0.01 0.01 0.01 89 1013.8
20260509102314 39 71 0.0 0.0 0.01 0.01 0.01 88 1013.6
20260509101834 39 71 0.0 1.0 0.00 0.00 0.00 88 1013.6
20260509101308 39 71 0.0 1.0 0.00 0.00 0.00 88 1013.6
20260509100813 39 232 0.0 1.0 0.00 0.00 0.00 87 1013.6
20260509100318 39 232 0.0 1.0 0.00 0.00 0.00 87 1013.6
20260509095814 39 232 0.0 1.0 0.00 0.00 0.00 87 1013.6
20260509095330 39 232 0.0 1.0 0.00 0.00 0.00 87 1013.6
20260509094813 38 232 0.0 0.0 0.00 0.00 0.00 88 1013.6
20260509094256 38 232 0.0 0.0 0.00 0.00 0.00 88 1013.6
20260509093810 38 232 0.0 1.0 0.00 0.00 0.00 88 1013.2
20260509093310 38 231 0.0 1.0 0.00 0.00 0.00 88 1013.2
20260509092811 38 232 0.0 0.0 0.00 0.00 0.00 88 1013.2
20260509092310 38 232 0.0 0.0 0.00 0.00 0.00 88 1013.4
20260509091810 38 232 0.0 0.0 0.00 0.00 0.00 88 1013.4
20260509091310 38 232 0.0 0.0 0.00 0.00 0.00 88 1013.4
20260509090805 38 232 0.0 0.0 0.00 0.00 0.00 88 1013.2
20260509090259 38 232 0.0 0.0 0.00 0.00 0.00 87 1013.2
20260509085756 38 232 0.0 0.0 0.00 0.00 0.00 87 1013.2
20260509085315 38 232 0.0 0.0 0.00 0.00 0.00 87 1013.1
20260509084811 38 232 0.0 0.0 0.00 0.00 0.00 87 1013.1
20260509084309 38 232 0.0 0.0 0.00 0.00 0.00 87 1013.1
20260509083811 38 232 0.0 0.0 0.00 0.00 0.00 87 1013.1
20260509083307 38 231 0.0 0.0 0.00 0.00 0.00 87 1013.1
20260509082803 38 232 0.0 0.0 0.00 0.00 0.00 87 1013.1
20260509082319 38 232 0.0 0.0 0.00 0.00 0.00 86 1012.9
20260509081756 38 232 0.0 0.0 0.00 0.00 0.00 86 1012.9
20260509081314 38 232 0.0 0.0 0.00 0.00 0.00 86 1012.9
20260509080808 38 231 0.0 0.0 0.00 0.00 0.00 86 1013.1
20260509080300 38 231 0.0 0.0 0.00 0.00 0.00 86 1013.1
20260509075803 38 231 0.0 0.0 0.00 0.00 0.00 85 1013.1
20260509075259 38 232 0.0 0.0 0.00 0.00 0.00 85 1012.7
20260509074813 38 231 0.0 0.0 0.00 0.00 0.00 85 1012.7
20260509074311 38 231 0.0 0.0 0.00 0.00 0.00 85 1012.7
20260509073807 38 231 0.0 0.0 0.00 0.00 0.00 85 1012.7
20260509073301 38 231 0.0 0.0 0.00 0.00 0.00 85 1012.7
20260509072801 38 231 0.0 0.0 0.00 0.00 0.00 84 1012.7
20260509072307 39 231 0.0 0.0 0.00 0.00 0.00 84 1012.8
20260509071802 39 231 0.0 0.0 0.00 0.00 0.00 83 1012.8
20260509071304 39 231 0.0 0.0 0.00 0.00 0.00 83 1012.8
20260509070801 39 231 0.0 0.0 0.00 0.00 0.00 83 1012.7
20260509070254 39 232 0.0 0.0 0.00 0.00 0.00 83 1012.7
20260509065757 39 231 0.0 0.0 0.00 0.00 0.00 83 1012.7
20260509065330 39 232 0.0 0.0 0.00 0.00 0.00 83 1012.9
20260509064826 39 231 0.0 0.0 0.00 0.00 0.00 83 1012.9
20260509064325 40 231 0.0 0.0 0.00 0.00 0.00 83 1012.9
20260509063801 40 231 0.0 0.0 0.00 0.00 0.00 83 1013.0
20260509063258 40 232 0.0 0.0 0.00 0.00 0.00 83 1013.0
20260509062753 40 232 0.0 0.0 0.00 0.00 0.00 82 1013.0
20260509062256 40 231 0.0 0.0 0.00 0.00 0.00 82 1012.9
20260509061758 40 231 0.0 0.0 0.00 0.00 0.00 82 1012.9
20260509061257 40 232 0.0 0.0 0.00 0.00 0.00 82 1012.9
20260509060808 40 231 0.0 0.0 0.00 0.00 0.00 82 1012.8
20260509060301 40 232 0.0 0.0 0.00 0.00 0.00 82 1012.8
20260509055819 40 232 0.0 0.0 0.00 0.00 0.00 83 1012.8
20260509055300 40 232 0.0 0.0 0.00 0.00 0.00 83 1012.8
20260509054802 40 232 0.0 0.0 0.00 0.00 0.00 83 1012.8
20260509054305 40 232 0.0 0.0 0.00 0.00 0.00 83 1012.8
20260509053823 40 232 0.0 0.0 0.00 0.00 0.00 83 1012.7
20260509053301 40 232 0.0 0.0 0.00 0.00 0.00 83 1012.7
20260509052805 40 232 0.0 0.0 0.00 0.00 0.00 83 1012.7
20260509052310 40 232 0.0 0.0 0.00 0.00 0.00 83 1012.9
20260509051810 40 231 0.0 0.0 0.00 0.00 0.00 83 1012.9
20260509051302 40 231 0.0 0.0 0.00 0.00 0.00 83 1012.9
20260509050805 40 231 0.0 0.0 0.00 0.00 0.00 82 1012.9
20260509050256 40 232 0.0 0.0 0.00 0.00 0.00 81 1012.9
20260509045756 40 232 0.0 0.0 0.00 0.00 0.00 81 1012.9
20260509045256 40 232 0.0 0.0 0.00 0.00 0.00 80 1012.9
20260509044833 41 232 0.0 0.0 0.00 0.00 0.00 81 1012.9
20260509044306 41 231 0.0 0.0 0.00 0.00 0.00 80 1012.9